owner,sensor,date,latitude,longitude,vertical_datum,direction_of_sea_water_velocity,sea_water_speed,upward_sea_water_velocity,qcFlag 
TABS,ioos:station:wmo:42050:1,1998-03-01T00:00:00Z,28.8425,-94.2433,2.0,260.4008352,60.75053004,-99999.0,'11111222,11111222,99999999' 
TABS,ioos:station:wmo:42050:1,1998-03-01T00:30:00Z,28.8425,-94.2433,2.0,262.5650121,62.21300989,-99999.0,'11111222,11111222,99999999' 
TABS,ioos:station:wmo:42050:1,1998-03-01T01:00:00Z,28.8425,-94.2433,2.0,262.4797578,59.21930935,-99999.0,'11111222,11111222,99999999' 
TABS,ioos:station:wmo:42050:1,1998-03-01T01:30:00Z,28.8425,-94.2433,2.0,261.5426158,58.74880169,-99999.0,'11111222,11111222,99999999' 
TABS,ioos:station:wmo:42050:1,1998-03-01T02:00:00Z,28.8425,-94.2433,2.0,263.1013634,57.03285807,-99999.0,'11111222,11111222,99999999' 
TABS,ioos:station:wmo:42050:1,1998-03-01T02:30:00Z,28.8425,-94.2433,2.0,264.5058961,55.98716371,-99999.0,'11111222,11111222,99999999' 
TABS,ioos:station:wmo:42050:1,1998-03-01T03:00:00Z,28.8425,-94.2433,2.0,266.9055283,55.21048179,-99999.0,'11111222,11111222,99999999' 
TABS,ioos:station:wmo:42050:1,1998-03-01T03:30:00Z,28.8425,-94.2433,2.0,269.691154,55.73080746,-99999.0,'11111222,11111222,99999999' 
TABS,ioos:station:wmo:42050:1,1998-03-01T04:00:00Z,28.8425,-94.2433,2.0,272.8448066,54.00653664,-99999.0,'11111222,11111222,99999999' 
TABS,ioos:station:wmo:42050:1,1998-03-01T04:30:00Z,28.8425,-94.2433,2.0,266.8374057,54.02225467,-99999.0,'11111222,11111222,99999999' 
TABS,ioos:station:wmo:42050:1,1998-03-01T05:00:00Z,28.8425,-94.2433,2.0,271.6095473,53.06092442,-99999.0,'11111222,11111222,99999999' 
TABS,ioos:station:wmo:42050:1,1998-03-01T05:30:00Z,28.8425,-94.2433,2.0,275.2265488,49.0740033,-99999.0,'11111222,11111222,99999999' 
TABS,ioos:station:wmo:42050:1,1998-03-01T06:00:00Z,28.8425,-94.2433,2.0,278.2944297,45.47563743,-99999.0,'11111222,11111222,99999999' 
TABS,ioos:station:wmo:42050:1,1998-03-01T06:30:00Z,28.8425,-94.2433,2.0,279.5254878,45.02068969,-99999.0,'11111222,11111222,99999999' 
TABS,ioos:station:wmo:42050:1,1998-03-01T07:00:00Z,28.8425,-94.2433,2.0,280.8454584,42.78414309,-99999.0,'11111222,11111222,99999999' 
TABS,ioos:station:wmo:42050:1,1998-03-01T07:30:00Z,28.8425,-94.2433,2.0,281.0770158,41.90055966,-99999.0,'11111222,11111222,99999999' 
TABS,ioos:station:wmo:42050:1,1998-03-01T08:00:00Z,28.8425,-94.2433,2.0,281.9185748,38.98027835,-99999.0,'11111222,11111222,99999999' 
TABS,ioos:station:wmo:42050:1,1998-03-01T08:30:00Z,28.8425,-94.2433,2.0,288.2885405,37.03039292,-99999.0,'11111222,11111222,99999999' 
TABS,ioos:station:wmo:42050:1,1998-03-01T09:00:00Z,28.8425,-94.2433,2.0,285.7437521,36.22907396,-99999.0,'11111222,11111222,99999999' 
TABS,ioos:station:wmo:42050:1,1998-03-01T09:30:00Z,28.8425,-94.2433,2.0,290.1074196,35.54648787,-99999.0,'11111222,11111222,99999999' 
TABS,ioos:station:wmo:42050:1,1998-03-01T10:00:00Z,28.8425,-94.2433,2.0,289.2149545,34.39611606,-99999.0,'11111222,11111222,99999999' 
TABS,ioos:station:wmo:42050:1,1998-03-01T10:30:00Z,28.8425,-94.2433,2.0,288.4406679,33.92175261,-99999.0,'11111222,11111222,99999999' 
TABS,ioos:station:wmo:42050:1,1998-03-01T11:00:00Z,28.8425,-94.2433,2.0,286.8043986,32.99908635,-99999.0,'11111222,11111222,99999999' 
TABS,ioos:station:wmo:42050:1,1998-03-01T11:30:00Z,28.8425,-94.2433,2.0,281.886501,34.71431117,-99999.0,'11111222,11111222,99999999' 
TABS,ioos:station:wmo:42050:1,1998-03-01T12:00:00Z,28.8425,-94.2433,2.0,281.0087015,32.78322742,-99999.0,'11111222,11111222,99999999' 
TABS,ioos:station:wmo:42050:1,1998-03-01T12:30:00Z,28.8425,-94.2433,2.0,274.8958664,31.40456177,-99999.0,'11111222,11111222,99999999' 
TABS,ioos:station:wmo:42050:1,1998-03-01T13:00:00Z,28.8425,-94.2433,2.0,271.003452,34.275252,-99999.0,'11111222,11111222,99999999' 
TABS,ioos:station:wmo:42050:1,1998-03-01T13:30:00Z,28.8425,-94.2433,2.0,269.4654524,32.18139835,-99999.0,'11111222,11111222,99999999' 
TABS,ioos:station:wmo:42050:1,1998-03-01T14:00:00Z,28.8425,-94.2433,2.0,269.4654524,32.18139835,-99999.0,'11111222,11111222,99999999' 
TABS,ioos:station:wmo:42050:1,1998-03-01T14:30:00Z,28.8425,-94.2433,2.0,272.1374607,31.91219516,-99999.0,'11111222,11111222,99999999' 
TABS,ioos:station:wmo:42050:1,1998-03-01T15:00:00Z,28.8425,-94.2433,2.0,275.7110007,29.94862935,-99999.0,'11111222,11111222,99999999' 
TABS,ioos:station:wmo:42050:1,1998-03-01T15:30:00Z,28.8425,-94.2433,2.0,271.4751638,34.58145457,-99999.0,'11111222,11111222,99999999' 
TABS,ioos:station:wmo:42050:1,1998-03-01T16:00:00Z,28.8425,-94.2433,2.0,278.7507306,31.35495176,-99999.0,'11111222,11111222,99999999' 
TABS,ioos:station:wmo:42050:1,1998-03-01T16:30:00Z,28.8425,-94.2433,2.0,280.5864195,32.4421593,-99999.0,'11111222,11111222,99999999' 
TABS,ioos:station:wmo:42050:1,1998-03-01T17:00:00Z,28.8425,-94.2433,2.0,280.1583358,32.09304753,-99999.0,'11111222,11111222,99999999' 
TABS,ioos:station:wmo:42050:1,1998-03-01T17:30:00Z,28.8425,-94.2433,2.0,281.0926945,30.97872819,-99999.0,'11111222,11111222,99999999' 
TABS,ioos:station:wmo:42050:1,1998-03-01T18:00:00Z,28.8425,-94.2433,2.0,284.4390134,31.08170684,-99999.0,'11111222,11111222,99999999' 
TABS,ioos:station:wmo:42050:1,1998-03-01T18:30:00Z,28.8425,-94.2433,2.0,282.9458506,30.57715651,-99999.0,'11111222,11111222,99999999' 
TABS,ioos:station:wmo:42050:1,1998-03-01T19:00:00Z,28.8425,-94.2433,2.0,288.6231805,28.93499611,-99999.0,'11111222,11111222,99999999' 
TABS,ioos:station:wmo:42050:1,1998-03-01T19:30:00Z,28.8425,-94.2433,2.0,291.1242264,28.10881179,-99999.0,'11111222,11111222,99999999' 
TABS,ioos:station:wmo:42050:1,1998-03-01T20:00:00Z,28.8425,-94.2433,2.0,293.5520983,25.35181453,-99999.0,'11111222,11111222,99999999' 
TABS,ioos:station:wmo:42050:1,1998-03-01T20:30:00Z,28.8425,-94.2433,2.0,297.202592,24.12866552,-99999.0,'11111222,11111222,99999999' 
TABS,ioos:station:wmo:42050:1,1998-03-01T21:00:00Z,28.8425,-94.2433,2.0,305.4607904,24.14930641,-99999.0,'11111222,11111222,99999999' 
TABS,ioos:station:wmo:42050:1,1998-03-01T21:30:00Z,28.8425,-94.2433,2.0,312.2207937,21.72666795,-99999.0,'11111222,11111222,99999999' 
TABS,ioos:station:wmo:42050:1,1998-03-01T22:00:00Z,28.8425,-94.2433,2.0,309.6728972,18.20177189,-99999.0,'11111222,11111222,99999999' 
TABS,ioos:station:wmo:42050:1,1998-03-01T22:30:00Z,28.8425,-94.2433,2.0,311.992846,16.03805786,-99999.0,'11111222,11111222,99999999' 
TABS,ioos:station:wmo:42050:1,1998-03-01T23:00:00Z,28.8425,-94.2433,2.0,310.9220275,11.83157217,-99999.0,'11111222,11111222,99999999' 
TABS,ioos:station:wmo:42050:1,1998-03-01T23:30:00Z,28.8425,-94.2433,2.0,304.1633954,10.079246,-99999.0,'11111222,11111222,99999999' 
TABS,ioos:station:wmo:42050:1,1998-03-02T00:00:00Z,28.8425,-94.2433,2.0,305.0009609,10.91380777,-99999.0,'11111222,11111222,99999999' 
TABS,ioos:station:wmo:42050:1,1998-03-02T00:30:00Z,28.8425,-94.2433,2.0,295.0067294,9.864709828,-99999.0,'11133222,11111222,99999999' 
TABS,ioos:station:wmo:42050:1,1998-03-02T01:00:00Z,28.8425,-94.2433,2.0,291.8017794,8.023895563,-99999.0,'11133222,11111222,99999999' 
TABS,ioos:station:wmo:42050:1,1998-03-02T01:30:00Z,28.8425,-94.2433,2.0,282.7971067,6.727087037,-99999.0,'11133222,11111222,99999999' 
TABS,ioos:station:wmo:42050:1,1998-03-02T02:00:00Z,28.8425,-94.2433,2.0,277.0958308,7.205178693,-99999.0,'11133222,11111222,99999999' 
TABS,ioos:station:wmo:42050:1,1998-03-02T02:30:00Z,28.8425,-94.2433,2.0,265.8846796,4.18077744,-99999.0,'11133222,11111222,99999999' 
TABS,ioos:station:wmo:42050:1,1998-03-02T03:00:00Z,28.8425,-94.2433,2.0,254.0723692,4.336473221,-99999.0,'11133222,11111222,99999999' 
TABS,ioos:station:wmo:42050:1,1998-03-02T03:30:00Z,28.8425,-94.2433,2.0,251.6288342,2.823915721,-99999.0,'11133222,11111222,99999999' 
TABS,ioos:station:wmo:42050:1,1998-03-02T04:00:00Z,28.8425,-94.2433,2.0,284.1498639,2.454465319,-99999.0,'11133222,11111222,99999999' 
TABS,ioos:station:wmo:42050:1,1998-03-02T04:30:00Z,28.8425,-94.2433,2.0,291.057722,4.146926573,-99999.0,'11133222,11111222,99999999' 
TABS,ioos:station:wmo:42050:1,1998-03-02T05:00:00Z,28.8425,-94.2433,2.0,303.6164798,4.298930099,-99999.0,'11133222,11111222,99999999' 
TABS,ioos:station:wmo:42050:1,1998-03-02T05:30:00Z,28.8425,-94.2433,2.0,292.5975011,3.877692613,-99999.0,'11133222,11111222,99999999' 
TABS,ioos:station:wmo:42050:1,1998-03-02T06:00:00Z,28.8425,-94.2433,2.0,305.0439421,3.639848898,-99999.0,'11133222,11111222,99999999' 
TABS,ioos:station:wmo:42050:1,1998-03-02T06:30:00Z,28.8425,-94.2433,2.0,315.0003157,6.321534624,-99999.0,'11133222,11111222,99999999' 
TABS,ioos:station:wmo:42050:1,1998-03-02T07:00:00Z,28.8425,-94.2433,2.0,315.0003157,6.321534624,-99999.0,'11133222,11111222,99999999' 
TABS,ioos:station:wmo:42050:1,1998-03-02T07:30:00Z,28.8425,-94.2433,2.0,318.3336113,7.175130661,-99999.0,'11133222,11111222,99999999' 
TABS,ioos:station:wmo:42050:1,1998-03-02T08:00:00Z,28.8425,-94.2433,2.0,322.3010869,8.290868471,-99999.0,'11133222,11111222,99999999' 
TABS,ioos:station:wmo:42050:1,1998-03-02T08:30:00Z,28.8425,-94.2433,2.0,321.0710371,9.962434441,-99999.0,'11133222,11111222,99999999' 
TABS,ioos:station:wmo:42050:1,1998-03-02T09:00:00Z,28.8425,-94.2433,2.0,323.1496225,11.92200067,-99999.0,'11111222,11111222,99999999' 
TABS,ioos:station:wmo:42050:1,1998-03-02T09:30:00Z,28.8425,-94.2433,2.0,322.8423903,12.33415583,-99999.0,'11111222,11111222,99999999' 
TABS,ioos:station:wmo:42050:1,1998-03-02T10:00:00Z,28.8425,-94.2433,2.0,322.8423903,12.33415583,-99999.0,'11111222,11111222,99999999' 
TABS,ioos:station:wmo:42050:1,1998-03-02T10:30:00Z,28.8425,-94.2433,2.0,323.449203,11.50217805,-99999.0,'11111222,11111222,99999999' 
TABS,ioos:station:wmo:42050:1,1998-03-02T11:00:00Z,28.8425,-94.2433,2.0,316.0139828,11.59129415,-99999.0,'11111222,11111222,99999999' 
TABS,ioos:station:wmo:42050:1,1998-03-02T11:30:00Z,28.8425,-94.2433,2.0,307.4603637,11.26259739,-99999.0,'11111222,11111222,99999999' 
TABS,ioos:station:wmo:42050:1,1998-03-02T12:00:00Z,28.8425,-94.2433,2.0,302.3386395,10.58107745,-99999.0,'11111222,11111222,99999999' 
TABS,ioos:station:wmo:42050:1,1998-03-02T12:30:00Z,28.8425,-94.2433,2.0,293.7627451,8.140079852,-99999.0,'11133222,11111222,99999999' 
TABS,ioos:station:wmo:42050:1,1998-03-02T13:00:00Z,28.8425,-94.2433,2.0,288.4139716,8.484391552,-99999.0,'11133222,11111222,99999999' 
TABS,ioos:station:wmo:42050:1,1998-03-02T13:30:00Z,28.8425,-94.2433,2.0,277.0958308,7.205178693,-99999.0,'11133222,11111222,99999999' 
TABS,ioos:station:wmo:42050:1,1998-03-02T14:00:00Z,28.8425,-94.2433,2.0,267.7827899,7.755804278,-99999.0,'11133222,11111222,99999999' 
TABS,ioos:station:wmo:42050:1,1998-03-02T14:30:00Z,28.8425,-94.2433,2.0,257.996434,10.04972636,-99999.0,'11111222,11111222,99999999' 
TABS,ioos:station:wmo:42050:1,1998-03-02T15:00:00Z,28.8425,-94.2433,2.0,255.6158455,11.99603268,-99999.0,'11111222,11111222,99999999' 
TABS,ioos:station:wmo:42050:1,1998-03-02T15:30:00Z,28.8425,-94.2433,2.0,263.3650274,12.89636383,-99999.0,'11111222,11111222,99999999' 
TABS,ioos:station:wmo:42050:1,1998-03-02T16:00:00Z,28.8425,-94.2433,2.0,270.0004209,13.71,-99999.0,'11111222,11111222,99999999' 
TABS,ioos:station:wmo:42050:1,1998-03-02T16:30:00Z,28.8425,-94.2433,2.0,293.6423534,15.61017617,-99999.0,'11111222,11111222,99999999' 
TABS,ioos:station:wmo:42050:1,1998-03-02T17:00:00Z,28.8425,-94.2433,2.0,297.0159562,17.06172617,-99999.0,'11111222,11111222,99999999' 
TABS,ioos:station:wmo:42050:1,1998-03-02T17:30:00Z,28.8425,-94.2433,2.0,308.8141896,15.68302586,-99999.0,'11111222,11111222,99999999' 
TABS,ioos:station:wmo:42050:1,1998-03-02T18:00:00Z,28.8425,-94.2433,2.0,325.1536805,20.33667869,-99999.0,'11111222,11111222,99999999' 
TABS,ioos:station:wmo:42050:1,1998-03-02T18:30:00Z,28.8425,-94.2433,2.0,334.3550977,24.79224476,-99999.0,'11111222,11111222,99999999' 
TABS,ioos:station:wmo:42050:1,1998-03-02T19:00:00Z,28.8425,-94.2433,2.0,338.9053273,26.50631057,-99999.0,'11111222,11111222,99999999' 
TABS,ioos:station:wmo:42050:1,1998-03-02T19:30:00Z,28.8425,-94.2433,2.0,342.7265439,28.08679405,-99999.0,'11111222,11111222,99999999' 
TABS,ioos:station:wmo:42050:1,1998-03-02T20:00:00Z,28.8425,-94.2433,2.0,343.9083762,30.08892986,-99999.0,'11111222,11111222,99999999' 
TABS,ioos:station:wmo:42050:1,1998-03-02T20:30:00Z,28.8425,-94.2433,2.0,348.6867831,31.91005641,-99999.0,'11111222,11111222,99999999' 
TABS,ioos:station:wmo:42050:1,1998-03-02T21:00:00Z,28.8425,-94.2433,2.0,351.1281822,32.87332201,-99999.0,'11111222,11111222,99999999' 
TABS,ioos:station:wmo:42050:1,1998-03-02T21:30:00Z,28.8425,-94.2433,2.0,353.6522169,32.37852375,-99999.0,'11111222,11111222,99999999' 
TABS,ioos:station:wmo:42050:1,1998-03-02T22:00:00Z,28.8425,-94.2433,2.0,355.6916791,31.67952809,-99999.0,'11111222,11111222,99999999' 
TABS,ioos:station:wmo:42050:1,1998-03-02T22:30:00Z,28.8425,-94.2433,2.0,357.713445,29.8237506,-99999.0,'11111222,11111222,99999999' 
TABS,ioos:station:wmo:42050:1,1998-03-02T23:00:00Z,28.8425,-94.2433,2.0,1.781989041,28.62383971,-99999.0,'11111222,11111222,99999999' 
TABS,ioos:station:wmo:42050:1,1998-03-02T23:30:00Z,28.8425,-94.2433,2.0,0.000210459,27.12,-99999.0,'11111222,11111222,99999999' 
TABS,ioos:station:wmo:42050:1,1998-03-03T00:00:00Z,28.8425,-94.2433,2.0,3.180033143,26.861357,-99999.0,'11111222,11111222,99999999' 
TABS,ioos:station:wmo:42050:1,1998-03-03T00:30:00Z,28.8425,-94.2433,2.0,7.398512417,23.14266406,-99999.0,'11111222,11111222,99999999' 
TABS,ioos:station:wmo:42050:1,1998-03-03T01:00:00Z,28.8425,-94.2433,2.0,10.31528571,19.99313132,-99999.0,'11111222,11111222,99999999' 
TABS,ioos:station:wmo:42050:1,1998-03-03T01:30:00Z,28.8425,-94.2433,2.0,16.69941564,15.5560567,-99999.0,'11111222,11111222,99999999' 
TABS,ioos:station:wmo:42050:1,1998-03-03T02:00:00Z,28.8425,-94.2433,2.0,26.56519952,13.32696515,-99999.0,'11111222,11111222,99999999' 
TABS,ioos:station:wmo:42050:1,1998-03-03T02:30:00Z,28.8425,-94.2433,2.0,37.73316782,11.68332573,-99999.0,'11111222,11111222,99999999' 
TABS,ioos:station:wmo:42050:1,1998-03-03T03:00:00Z,28.8425,-94.2433,2.0,45.00010523,9.687362902,-99999.0,'11133222,11111222,99999999' 
TABS,ioos:station:wmo:42050:1,1998-03-03T03:30:00Z,28.8425,-94.2433,2.0,49.75379495,10.15362497,-99999.0,'11111222,11111222,99999999' 
TABS,ioos:station:wmo:42050:1,1998-03-03T04:00:00Z,28.8425,-94.2433,2.0,53.85858501,9.5967755,-99999.0,'11133222,11111222,99999999' 
TABS,ioos:station:wmo:42050:1,1998-03-03T04:30:00Z,28.8425,-94.2433,2.0,60.76295273,8.537646046,-99999.0,'11133222,11111222,99999999' 
TABS,ioos:station:wmo:42050:1,1998-03-03T05:00:00Z,28.8425,-94.2433,2.0,74.07279015,8.672946443,-99999.0,'11133222,11111222,99999999' 
TABS,ioos:station:wmo:42050:1,1998-03-03T05:30:00Z,28.8425,-94.2433,2.0,85.25846572,10.76684726,-99999.0,'11111222,11111222,99999999' 
TABS,ioos:station:wmo:42050:1,1998-03-03T06:00:00Z,28.8425,-94.2433,2.0,90.0,8.94,-99999.0,'11133222,11111222,99999999' 
TABS,ioos:station:wmo:42050:1,1998-03-03T06:30:00Z,28.8425,-94.2433,2.0,85.5730387,7.773191108,-99999.0,'11133222,11111222,99999999' 
TABS,ioos:station:wmo:42050:1,1998-03-03T07:00:00Z,28.8425,-94.2433,2.0,79.8705966,8.47205406,-99999.0,'11133222,11111222,99999999' 
TABS,ioos:station:wmo:42050:1,1998-03-03T07:30:00Z,28.8425,-94.2433,2.0,87.49230414,6.856566196,-99999.0,'11133222,11111222,99999999' 
TABS,ioos:station:wmo:42050:1,1998-03-03T08:00:00Z,28.8425,-94.2433,2.0,87.11842301,5.967545559,-99999.0,'11133222,11111222,99999999' 
TABS,ioos:station:wmo:42050:1,1998-03-03T08:30:00Z,28.8425,-94.2433,2.0,90.0,3.58,-99999.0,'11133222,11111222,99999999' 
TABS,ioos:station:wmo:42050:1,1998-03-03T09:00:00Z,28.8425,-94.2433,2.0,303.9865086,1.073359213,-99999.0,'11133222,11111222,99999999' 
TABS,ioos:station:wmo:42050:1,1998-03-03T09:30:00Z,28.8425,-94.2433,2.0,270.0004209,1.19,-99999.0,'11133222,11111222,99999999' 
TABS,ioos:station:wmo:42050:1,1998-03-03T10:00:00Z,28.8425,-94.2433,2.0,302.0489876,2.807935184,-99999.0,'11133222,11111222,99999999' 
TABS,ioos:station:wmo:42050:1,1998-03-03T10:30:00Z,28.8425,-94.2433,2.0,306.3812344,7.030256041,-99999.0,'11133222,11111222,99999999' 
TABS,ioos:station:wmo:42050:1,1998-03-03T11:00:00Z,28.8425,-94.2433,2.0,306.8574088,8.936000224,-99999.0,'11133222,11111222,99999999' 
TABS,ioos:station:wmo:42050:1,1998-03-03T11:30:00Z,28.8425,-94.2433,2.0,307.2254167,9.356179776,-99999.0,'11133222,11111222,99999999' 
TABS,ioos:station:wmo:42050:1,1998-03-03T12:00:00Z,28.8425,-94.2433,2.0,310.3958393,10.57000473,-99999.0,'11111222,11111222,99999999' 
TABS,ioos:station:wmo:42050:1,1998-03-03T12:30:00Z,28.8425,-94.2433,2.0,304.5988269,10.49624695,-99999.0,'11111222,11111222,99999999' 
TABS,ioos:station:wmo:42050:1,1998-03-03T13:00:00Z,28.8425,-94.2433,2.0,301.8420145,12.98396704,-99999.0,'11111222,11111222,99999999' 
TABS,ioos:station:wmo:42050:1,1998-03-03T13:30:00Z,28.8425,-94.2433,2.0,300.2601073,12.42258025,-99999.0,'11111222,11111222,99999999' 
TABS,ioos:station:wmo:42050:1,1998-03-03T14:00:00Z,28.8425,-94.2433,2.0,295.4002355,13.19552955,-99999.0,'11111222,11111222,99999999' 
TABS,ioos:station:wmo:42050:1,1998-03-03T14:30:00Z,28.8425,-94.2433,2.0,292.7059288,13.88616938,-99999.0,'11111222,11111222,99999999' 
TABS,ioos:station:wmo:42050:1,1998-03-03T15:00:00Z,28.8425,-94.2433,2.0,294.64324,15.73288276,-99999.0,'11111222,11111222,99999999' 
TABS,ioos:station:wmo:42050:1,1998-03-03T15:30:00Z,28.8425,-94.2433,2.0,295.1924084,16.79769329,-99999.0,'11111222,11111222,99999999' 
TABS,ioos:station:wmo:42050:1,1998-03-03T16:00:00Z,28.8425,-94.2433,2.0,292.7521946,20.03928392,-99999.0,'11111222,11111222,99999999' 
TABS,ioos:station:wmo:42050:1,1998-03-03T16:30:00Z,28.8425,-94.2433,2.0,294.027916,24.14190133,-99999.0,'11111222,11111222,99999999' 
TABS,ioos:station:wmo:42050:1,1998-03-03T17:00:00Z,28.8425,-94.2433,2.0,306.7276604,24.91607714,-99999.0,'11111222,11111222,99999999' 
TABS,ioos:station:wmo:42050:1,1998-03-03T17:30:00Z,28.8425,-94.2433,2.0,315.4933814,24.65065516,-99999.0,'11111222,11111222,99999999' 
TABS,ioos:station:wmo:42050:1,1998-03-03T18:00:00Z,28.8425,-94.2433,2.0,307.1061774,29.14024708,-99999.0,'11111222,11111222,99999999' 
TABS,ioos:station:wmo:42050:1,1998-03-03T18:30:00Z,28.8425,-94.2433,2.0,310.7176765,31.05799736,-99999.0,'11111222,11111222,99999999' 
TABS,ioos:station:wmo:42050:1,1998-03-03T19:00:00Z,28.8425,-94.2433,2.0,315.7798002,31.18629507,-99999.0,'11111222,11111222,99999999' 
TABS,ioos:station:wmo:42050:1,1998-03-03T19:30:00Z,28.8425,-94.2433,2.0,314.6328839,33.07913542,-99999.0,'11111222,11111222,99999999' 
TABS,ioos:station:wmo:42050:1,1998-03-03T20:00:00Z,28.8425,-94.2433,2.0,318.9110656,34.00616709,-99999.0,'11111222,11111222,99999999' 
TABS,ioos:station:wmo:42050:1,1998-03-03T20:30:00Z,28.8425,-94.2433,2.0,324.4589037,35.88564616,-99999.0,'11111222,11111222,99999999' 
TABS,ioos:station:wmo:42050:1,1998-03-03T21:00:00Z,28.8425,-94.2433,2.0,327.4533282,37.11960398,-99999.0,'11111222,11111222,99999999' 
TABS,ioos:station:wmo:42050:1,1998-03-03T21:30:00Z,28.8425,-94.2433,2.0,333.4418513,38.64819918,-99999.0,'11111222,11111222,99999999' 
TABS,ioos:station:wmo:42050:1,1998-03-03T22:00:00Z,28.8425,-94.2433,2.0,337.7306119,40.90076405,-99999.0,'11111222,11111222,99999999' 
TABS,ioos:station:wmo:42050:1,1998-03-03T22:30:00Z,28.8425,-94.2433,2.0,338.8575053,43.77685462,-99999.0,'11111222,11111222,99999999' 
TABS,ioos:station:wmo:42050:1,1998-03-03T23:00:00Z,28.8425,-94.2433,2.0,342.6454661,44.95660352,-99999.0,'11111222,11111222,99999999' 
TABS,ioos:station:wmo:42050:1,1998-03-03T23:30:00Z,28.8425,-94.2433,2.0,346.4851494,47.19695965,-99999.0,'11111222,11111222,99999999' 
TABS,ioos:station:wmo:42050:1,1998-03-04T00:00:00Z,28.8425,-94.2433,2.0,347.4338373,47.93838754,-99999.0,'11111222,11111222,99999999' 
TABS,ioos:station:wmo:42050:1,1998-03-04T00:30:00Z,28.8425,-94.2433,2.0,352.4737166,47.79175661,-99999.0,'11111222,11111222,99999999' 
TABS,ioos:station:wmo:42050:1,1998-03-04T01:00:00Z,28.8425,-94.2433,2.0,356.6795703,46.26768311,-99999.0,'11111222,11111222,99999999' 
TABS,ioos:station:wmo:42050:1,1998-03-04T01:30:00Z,28.8425,-94.2433,2.0,359.2259921,44.40405387,-99999.0,'11111222,11144222,99999999' 
TABS,ioos:station:wmo:42050:1,1998-03-04T02:00:00Z,28.8425,-94.2433,2.0,4.703896948,43.65703265,-99999.0,'11111222,11111222,99999999' 
TABS,ioos:station:wmo:42050:1,1998-03-04T02:30:00Z,28.8425,-94.2433,2.0,8.716824413,41.30709987,-99999.0,'11111222,11111222,99999999' 
TABS,ioos:station:wmo:42050:1,1998-03-04T03:00:00Z,28.8425,-94.2433,2.0,16.06941404,38.76461531,-99999.0,'11111222,11111222,99999999' 
TABS,ioos:station:wmo:42050:1,1998-03-04T03:30:00Z,28.8425,-94.2433,2.0,28.81093683,34.00988239,-99999.0,'11111222,11111222,99999999' 
TABS,ioos:station:wmo:42050:1,1998-03-04T04:00:00Z,28.8425,-94.2433,2.0,32.21913975,32.41072045,-99999.0,'11111222,11111222,99999999' 
TABS,ioos:station:wmo:42050:1,1998-03-04T04:30:00Z,28.8425,-94.2433,2.0,39.44953549,30.4848897,-99999.0,'11111222,11111222,99999999' 
TABS,ioos:station:wmo:42050:1,1998-03-04T05:00:00Z,28.8425,-94.2433,2.0,42.47129689,28.6869744,-99999.0,'11111222,11111222,99999999' 
TABS,ioos:station:wmo:42050:1,1998-03-04T05:30:00Z,28.8425,-94.2433,2.0,47.0424468,23.61115203,-99999.0,'11111222,11111222,99999999' 
TABS,ioos:station:wmo:42050:1,1998-03-04T06:00:00Z,28.8425,-94.2433,2.0,44.44023075,21.70921463,-99999.0,'11111222,11111222,99999999' 
TABS,ioos:station:wmo:42050:1,1998-03-04T06:30:00Z,28.8425,-94.2433,2.0,43.5937843,17.28689677,-99999.0,'11111222,11111222,99999999' 
TABS,ioos:station:wmo:42050:1,1998-03-04T07:00:00Z,28.8425,-94.2433,2.0,39.95354129,14.38883248,-99999.0,'11111222,11111222,99999999' 
TABS,ioos:station:wmo:42050:1,1998-03-04T07:30:00Z,28.8425,-94.2433,2.0,27.11712931,14.39200125,-99999.0,'11111222,11111222,99999999' 
TABS,ioos:station:wmo:42050:1,1998-03-04T08:00:00Z,28.8425,-94.2433,2.0,18.87432875,11.96324789,-99999.0,'11111222,11111222,99999999' 
TABS,ioos:station:wmo:42050:1,1998-03-04T08:30:00Z,28.8425,-94.2433,2.0,16.25729996,14.89560002,-99999.0,'11111222,11111222,99999999' 
TABS,ioos:station:wmo:42050:1,1998-03-04T09:00:00Z,28.8425,-94.2433,2.0,5.279959962,19.45253197,-99999.0,'11111222,11111222,99999999' 
TABS,ioos:station:wmo:42050:1,1998-03-04T09:30:00Z,28.8425,-94.2433,2.0,4.904744697,20.93665924,-99999.0,'11111222,11111222,99999999' 
TABS,ioos:station:wmo:42050:1,1998-03-04T10:00:00Z,28.8425,-94.2433,2.0,5.203631014,23.04496908,-99999.0,'11111222,11111222,99999999' 
TABS,ioos:station:wmo:42050:1,1998-03-04T10:30:00Z,28.8425,-94.2433,2.0,3.866012134,22.10028507,-99999.0,'11111222,11111222,99999999' 
TABS,ioos:station:wmo:42050:1,1998-03-04T11:00:00Z,28.8425,-94.2433,2.0,359.3135197,25.03179778,-99999.0,'11111222,11144222,99999999' 
TABS,ioos:station:wmo:42050:1,1998-03-04T11:30:00Z,28.8425,-94.2433,2.0,1.441910612,23.84754914,-99999.0,'11111222,11111222,99999999' 
TABS,ioos:station:wmo:42050:1,1998-03-04T12:00:00Z,28.8425,-94.2433,2.0,5.073903324,23.63259825,-99999.0,'11111222,11111222,99999999' 
TABS,ioos:station:wmo:42050:1,1998-03-04T12:30:00Z,28.8425,-94.2433,2.0,0.848553872,20.262221,-99999.0,'11111222,11111222,99999999' 
TABS,ioos:station:wmo:42050:1,1998-03-04T13:00:00Z,28.8425,-94.2433,2.0,9.823795971,22.68257922,-99999.0,'11111222,11111222,99999999' 
TABS,ioos:station:wmo:42050:1,1998-03-04T13:30:00Z,28.8425,-94.2433,2.0,14.26624597,18.13938533,-99999.0,'11111222,11111222,99999999' 
TABS,ioos:station:wmo:42050:1,1998-03-04T14:00:00Z,28.8425,-94.2433,2.0,15.25529349,16.98861383,-99999.0,'11111222,11111222,99999999' 
TABS,ioos:station:wmo:42050:1,1998-03-04T14:30:00Z,28.8425,-94.2433,2.0,9.633067798,16.0158203,-99999.0,'11111222,11111222,99999999' 
TABS,ioos:station:wmo:42050:1,1998-03-04T15:00:00Z,28.8425,-94.2433,2.0,1.177352592,14.60308187,-99999.0,'11111222,11111222,99999999' 
TABS,ioos:station:wmo:42050:1,1998-03-04T15:30:00Z,28.8425,-94.2433,2.0,2.620608275,13.12372279,-99999.0,'11111222,11111222,99999999' 
TABS,ioos:station:wmo:42050:1,1998-03-04T16:00:00Z,28.8425,-94.2433,2.0,0.000210459,11.03,-99999.0,'11111222,11111222,99999999' 